Location: Unspecified
(45.6669°N, 0.0000°E)
Time: 15:13:27
(UTC+00:00)

ISS - Pass Details

Date: 25 May 2019
Orbit: 408 x 418 km, 51.6° (Epoch: 17 June)

Event Time Altitude Azimuth Distance (km) Brightness Sun altitude
Rises 22:57:48 0° 298° (WNW) 2,362 0.7 -22.0°
Reaches altitude 10° 22:59:55 10° 303° (WNW) 1,499 -0.3 -22.1°
Enters shadow 23:03:09 53° 15° (NNE) 519 -3.1 -22.2°
